Weather History for KADG - September, 2013

Change the Weather History Date:

Friday, September 6, 2013

  Actual Average Record
Temperature  
Mean Temperature 60 °F -  
Max Temperature 75 °F 78 °F 94 °F (1954)
Min Temperature 46 °F 53 °F 36 °F (1986)
Degree Days  
Heating Degree Days 4    
Growing Degree Days 10 (Base 50)    
Moisture  
Dew Point 48 °F    
Average Humidity 66    
Maximum Humidity 96    
Minimum Humidity 34    
Precipitation  
Precipitation 0.00 in - - ()
Sea Level Pressure  
Sea Level Pressure 30.23 in    
Wind  
Wind Speed 4 mph (SE)    
Max Wind Speed 8 mph    
Max Gust Speed -    
Visibility 10 miles    
Events      
Averages and records for this station are not official NWS values.
T = Trace of Precipitation, MM = Missing Value Source: NWS Daily Summary

Daily Weather History Graph

Daily Weather History Graph

Search for Another Location

Airport or City:

Trip Planner

Search our weather history database for the weather conditions in past years. The results will help you decide how hot, cold, wet, or windy it might be!

Date:

Astronomy

Sep. 06, 2013 Rise Set
Actual Time 7:07 AM EDT 8:00 PM EDT
Civil Twilight 6:39 AM EDT 8:29 PM EDT
Nautical Twilight 6:05 AM EDT 9:02 PM EDT
Astronomical Twilight 5:30 AM EDT 9:37 PM EDT
Moon 8:20 AM EDT (9/6) 8:22 PM EDT (9/6)
Length of Visible Light 13h 50m
Length of Day
12h 53m
New Moon, 1% of the Moon is Illuminated
Sep 6
New Moon
Sep 12
First Quarter
Sep 19
Full
Sep 26
Last Quarter
Oct 4
New

Hourly Weather History & Observations

Time (EDT) Temp. Dew Point Humidity Pressure Visibility Wind Dir Wind Speed Gust Speed Precip Events Conditions
12:53 AM 55.9 °F 50.0 °F 80% 30.28 in 10.0 mi East 8.1 mph - N/A   Clear
1:53 AM 55.0 °F 48.9 °F 80% 30.28 in 10.0 mi East 5.8 mph - N/A   Clear
2:53 AM 53.1 °F 48.0 °F 83% 30.28 in 10.0 mi East 3.5 mph - N/A   Clear
3:53 AM 52.0 °F 48.0 °F 86% 30.29 in 10.0 mi NE 3.5 mph - N/A   Clear
4:53 AM 48.0 °F 46.9 °F 96% 30.29 in 10.0 mi Calm Calm - N/A   Clear
5:53 AM 46.9 °F 45.0 °F 93% 30.29 in 10.0 mi Calm Calm - N/A   Clear
6:53 AM 46.0 °F 45.0 °F 96% 30.30 in 8.0 mi Calm Calm - N/A   Clear
7:53 AM 48.0 °F 46.0 °F 93% 30.31 in 8.0 mi Calm Calm - N/A   Clear
8:53 AM 55.0 °F 50.0 °F 83% 30.30 in 10.0 mi Calm Calm - N/A   Clear
9:53 AM 62.1 °F 50.0 °F 65% 30.30 in 10.0 mi Calm Calm - N/A   Clear
10:53 AM 64.0 °F 46.0 °F 52% 30.30 in 10.0 mi South 5.8 mph - N/A   Clear
11:53 AM 66.9 °F 46.9 °F 49% 30.28 in 10.0 mi Calm Calm - N/A   Clear
12:53 PM 70.0 °F 48.0 °F 46% 30.26 in 10.0 mi Variable 5.8 mph - N/A   Clear
1:53 PM 71.1 °F 48.0 °F 44% 30.24 in 10.0 mi SE 5.8 mph - N/A   Clear
2:53 PM 73.0 °F 46.9 °F 39% 30.21 in 10.0 mi Variable 3.5 mph - N/A   Clear
3:53 PM 75.0 °F 45.0 °F 34% 30.18 in 10.0 mi SSW 5.8 mph - N/A   Clear
4:53 PM 75.0 °F 45.0 °F 34% 30.18 in 10.0 mi Variable 3.5 mph - N/A   Clear
5:53 PM 75.0 °F 46.9 °F 37% 30.17 in 10.0 mi SW 3.5 mph - N/A   Clear
6:53 PM 73.9 °F 48.9 °F 41% 30.16 in 10.0 mi SSE 3.5 mph - N/A   Clear
7:53 PM 70.0 °F 50.0 °F 49% 30.15 in 10.0 mi SSE 3.5 mph - N/A   Clear
8:53 PM 64.9 °F 50.0 °F 58% 30.14 in 10.0 mi SE 4.6 mph - N/A   Clear
9:53 PM 62.1 °F 54.0 °F 75% 30.13 in 10.0 mi SSE 3.5 mph - N/A   Clear
10:53 PM 60.1 °F 54.0 °F 80% 30.12 in 10.0 mi Calm Calm - N/A   Clear
11:53 PM 55.0 °F 52.0 °F 89% 30.11 in 10.0 mi Calm Calm - N/A   Clear